Location: New Quay
(52.2167°N, 4.3667°W)
Time: 13:59:37
(UTC+00:00)

Daily predictions for brighter satellites

Satellite Brightness Start Highest point End
(mag) Time Altitude Azimuth Time Altitude Azimuth Time Altitude Azimuth
ARGOS 3.4 19:12:27 10° SE 19:17:41 53° ENE 19:22:56 10° N
Okean 1-7 Rocket 3.6 19:14:43 10° N 19:19:09 83° E 19:23:32 10° SSE
STARLINK-1138 4.5 19:16:06 10° SSW 19:19:44 31° SE 19:23:22 10° E
Cosmos 1048 Rocket 4.0 19:15:06 10° SSW 19:20:14 84° ESE 19:25:30 10° NNE
STARLINK-1234 3.3 19:17:41 10° SW 19:20:31 42° SSE 19:23:21 10° E
STARLINK-1112 3.7 19:17:33 10° WNW 19:21:43 86° SSW 19:25:53 10° ESE
Meteor 1-24 Rocket 3.7 19:17:03 10° NNW 19:22:39 85° ENE 19:28:03 10° SSE
Cosmos 494 Rocket 4.1 19:18:03 10° S 19:23:05 57° ESE 19:28:11 10° NNE
STARLINK-1143 4.4 19:20:55 10° SSW 19:24:37 33° SE 19:28:18 10° E
USA 186 2.1 19:21:24 10° SSE 19:24:44 51° ENE 19:28:00 10° N
STARLINK-1128 3.7 19:22:32 10° WNW 19:26:42 84° SSW 19:30:51 10° ESE
Cosmos 1331 Rocket 4.3 19:22:57 10° NNW 19:28:07 70° WSW 19:33:14 10° SSE
Okean 1 Rocket 4.4 19:25:39 10° SSW 19:29:50 44° WNW 19:34:02 10° N
CZ-2C R/B 2.9 19:25:04 10° SSE 19:30:01 66° ENE 19:34:49 10° N
Cosmos 1544 Rocket 3.8 19:26:21 10° SSE 19:30:35 48° E 19:34:52 10° NNE
USA 81 4.2 19:25:56 10° N 19:31:14 83° W 19:36:30 10° S
STARLINK-1113 3.7 19:27:30 10° WNW 19:31:40 81° SSW 19:35:47 10° ESE
NOSS 0 Rocket 4.2 19:25:50 10° SW 19:32:03 79° NW 19:38:16 10° NNE
Cosmos 1470 3.5 19:29:14 10° SSE 19:32:38 30° E 19:36:05 10° NNE
STARLINK-1241 4.2 19:29:09 10° SW 19:32:53 36° SSE 19:36:38 10° E
CZ-4 R/B 4.1 19:33:19 10° SW 19:36:20 21° W 19:39:22 10° NW
STARLINK-1119 3.7 19:32:29 10° WNW 19:36:38 79° SSW 19:40:34 11° ESE
Cosmos 1745 Rocket 4.4 19:30:33 10° NNW 19:36:51 70° W 19:43:02 10° S
SPOT 3 Rocket 3.9 19:31:51 10° SE 19:36:51 49° ENE 19:41:52 10° N
STARLINK-1239 4.1 19:34:00 10° SW 19:37:47 39° SSE 19:41:34 10° E
Cosmos 2369 Rocket 2.7 19:32:25 10° NNW 19:37:54 44° NE 19:43:14 10° ESE
MOS 1 4.3 19:33:06 10° SSE 19:38:45 80° ENE 19:44:27 10° NNW
STARLINK-1114 3.7 19:37:30 10° WNW 19:41:40 76° SSW 19:45:24 12° ESE
STARLINK-1240 4.1 19:38:40 10° SW 19:42:29 41° SSE 19:46:19 10° E
COSMOS 2428 4.2 19:37:20 10° WSW 19:42:43 40° NW 19:48:08 10° NNE
SJ-6B 2.9 19:38:49 10° SSE 19:42:52 67° ENE 19:47:00 10° N
Aureole 2 Rocket 3.4 19:40:10 10° N 19:43:20 30° NE 19:45:57 13° ESE
Cosmos 1733 3.1 19:39:40 10° S 19:43:27 88° E 19:47:16 10° N
Cosmos 1726 3.9 19:42:56 12° ESE 19:44:34 15° E 19:46:47 10° NE
Ariane Rocket 3.3 19:40:55 10° S 19:45:59 72° WSW 19:51:05 10° NNW
Cosmos 1758 3.8 19:42:45 10° SSE 19:46:35 40° E 19:50:26 10° NNE
STARLINK-1130 (DARKSAT) 3.7 19:42:28 10° WNW 19:46:37 73° SSW 19:50:10 14° ESE
STARLINK-1216 4.0 19:43:21 10° SW 19:47:12 43° SSE 19:51:02 10° E
CZ-2C R/B 4.3 19:43:54 10° NNE 19:48:19 36° E 19:52:39 10° SSE
ATLAS CENTAUR R/B 3.9 19:45:55 10° WNW 19:49:03 19° NNW 19:52:02 10° NNE
STARLINK-1209 2.7 19:47:28 10° WSW 19:50:23 64° SSE 19:52:50 14° E
ARGOS Delta rocket 4.4 19:45:32 10° S 19:50:41 70° W 19:56:06 10° NNW
STARLINK-1084 3.7 19:47:26 10° WNW 19:51:35 70° SSW 19:54:56 15° ESE
STARLINK-1237 3.9 19:48:04 10° SW 19:51:57 46° SSE 19:55:38 11° E
STARLINK-1228 2.6 19:49:41 10° WSW 19:52:32 66° SSE 19:54:50 15° E
Meteor 1-22 Rocket 4.1 19:47:58 10° SSW 19:53:16 87° WNW 19:58:37 10° NNE
Cosmos 2184 Rocket 4.4 19:47:35 10° N 19:53:37 43° ENE 19:59:34 10° SE
NOSS 2-2 (D) 4.5 19:50:03 10° NW 19:55:21 78° NE 20:01:57 13° SE
SL-14 R/B 3.7 19:51:46 10° NNW 19:55:49 67° W 19:59:48 10° S
Terra 4.0 19:55:34 10° NE 19:56:11 10° NE 19:56:48 10° NE
Cosmos 2219 Rocket 4.1 19:51:28 10° WSW 19:56:31 32° NW 20:01:36 10° NNE
STARLINK-1098 3.8 19:52:25 10° WNW 19:56:33 67° SSW 19:59:43 16° ESE
STARLINK-1202 3.8 19:52:46 10° SW 19:56:41 48° SSE 20:00:12 12° E
Cosmos 1943 Rocket 2.2 19:53:56 10° NNW 19:59:29 71° ENE 20:04:35 12° SE
Meteor 1-21 Rocket 4.3 19:54:44 10° N 20:00:17 59° ENE 20:05:44 10° SSE
ERBS 3.0 19:57:38 10° W 20:00:57 53° NNW 20:04:17 10° ENE
STARLINK-1123 3.8 19:57:24 10° WNW 20:01:31 64° SSW 20:04:30 18° SE
NOSS 2-1 (E) 4.2 19:58:44 10° WSW 20:02:05 46° NW 20:06:04 10° NE
STARLINK-67 2.3 20:01:08 10° WSW 20:03:43 86° SSE 20:05:15 21° ENE
STARLINK-1246 3.8 19:59:53 10° SW 20:03:53 53° SSE 20:07:12 14° E
SL-8 R/B 4.0 19:59:33 10° W 20:04:13 55° S 20:07:34 18° ESE
Cosmos 1943 4.4 20:01:04 11° SE 20:04:35 19° E 20:08:30 10° NE
STARLINK-1201 2.9 20:03:12 10° WSW 20:06:27 66° SSE 20:08:41 19° E
STARLINK-1097 3.9 20:02:22 10° WNW 20:06:28 61° SSW 20:09:16 19° SE
Cosmos 1626 3.1 20:03:48 10° NNW 20:07:25 49° W 20:10:59 10° S
ATLAS 2AS CENTAUR R/B 3.4 20:00:58 10° NW 20:08:36 51° NNE 20:14:21 16° E
Resurs 1-3 3.6 20:05:32 10° SSE 20:09:53 67° ENE 20:14:16 10° N
STARLINK-1224 3.7 20:06:58 10° SW 20:10:58 56° SSE 20:13:58 17° E
STARLINK-1099 3.9 20:07:22 10° WNW 20:11:27 59° SSW 20:14:04 21° SE
STARLINK-1203 3.6 20:08:19 10° SW 20:12:14 59° SSE 20:15:06 17° E
Cosmos 2315 Rocket 4.0 20:08:29 10° S 20:14:49 87° E 20:21:14 10° N
STARLINK-1225 3.6 20:11:32 10° SW 20:15:33 59° SSE 20:18:23 18° E
USA 234 3.5 20:10:08 10° ENE 20:16:24 46° SE 20:22:39 10° SSW
STARLINK-1104 4.0 20:12:21 10° WNW 20:16:25 56° SSW 20:18:51 22° SE
H-2A R/B 3.0 20:11:32 10° S 20:16:40 50° W 20:21:42 10° NNW
DMSP B5D2-2 4.2 20:12:49 10° NNE 20:17:54 49° E 20:22:57 10° S
Aureole 3 3.8 20:14:20 10° S 20:18:27 60° E 20:23:45 10° NNE
SL-08 RB Rocket 4.0 20:14:12 10° S 20:18:43 69° WSW 20:23:18 10° NNW
STARLINK-1233 2.8 20:16:17 10° WSW 20:19:26 76° SSE 20:21:02 26° E
Resurs 01 Rocket 1.7 20:16:28 17° SSE 20:19:48 61° ENE 20:24:11 10° N
Meteor 2-15 Rocket 4.4 20:13:50 10° S 20:19:51 71° E 20:25:55 10° NNE
STARLINK-1212 2.7 20:16:46 10° WSW 20:19:53 76° SSE 20:21:27 27° E
STARLINK-1230 3.6 20:16:15 10° WSW 20:20:17 62° SSE 20:22:57 20° E
STARLINK-1105 2.8 20:17:12 10° WSW 20:20:20 77° SSE 20:21:54 27° E
STARLINK-1206 2.7 20:17:42 10° WSW 20:20:49 77° SSE 20:22:19 28° E
STARLINK-1247 2.7 20:18:08 10° WSW 20:21:15 77° SSE 20:22:44 28° E
STARLINK-1144 4.0 20:17:21 10° WNW 20:21:24 53° SSW 20:23:38 24° SE
SL-16 R/B 2.2 20:15:47 10° SSW 20:21:28 87° ESE 20:27:10 10° NNE
STARLINK-1227 2.8 20:18:33 10° WSW 20:21:41 78° SSE 20:23:11 28° E
Abrixas rocket 4.2 20:20:02 10° SSW 20:20:46 13° S 20:20:46 13° S
STARLINK-1218 2.7 20:19:02 10° WSW 20:22:09 78° SSE 20:23:36 29° E
STARLINK-1226 2.7 20:19:29 10° WSW 20:22:36 78° SSE 20:24:03 29° E
STARLINK-1254 2.7 20:19:54 10° WSW 20:23:03 79° SSE 20:24:30 29° E
STARLINK-1215 2.7 20:20:23 10° WSW 20:23:30 79° SSE 20:24:54 30° E
Cosmos 2228 3.9 20:22:39 25° ESE 20:23:48 28° E 20:27:30 10° NNE
STARLINK-1231 2.7 20:20:49 10° WSW 20:23:56 79° SSE 20:25:20 30° E
STARLINK-1232 2.7 20:21:44 10° WSW 20:24:51 80° SSE 20:26:12 31° E
STARLINK-1243 3.5 20:21:04 10° WSW 20:25:06 65° SSE 20:27:36 22° E
STARLINK-1217 2.7 20:22:11 10° WSW 20:25:19 80° SSE 20:26:38 31° E
STARLINK-1208 2.7 20:22:36 10° WSW 20:25:44 80° SSE 20:27:05 31° E
STARLINK-1229 2.7 20:23:05 10° WSW 20:26:11 81° SSE 20:27:30 32° E
STARLINK-1103 4.1 20:22:19 10° WNW 20:26:21 50° SSW 20:28:25 25° SE
STARLINK-1271 2.7 20:23:31 10° WSW 20:26:39 81° SSE 20:27:55 32° E
STARLINK-1270 2.7 20:24:00 10° WSW 20:27:07 81° SSE 20:28:22 33° E
Cosmos 1953 2.3 20:23:40 10° S 20:27:33 58° E 20:31:29 10° NNE
STARLINK-1154 2.7 20:24:26 10° WSW 20:27:33 82° SSE 20:28:48 33° E
STARLINK-1197 2.7 20:25:21 10° WSW 20:28:28 82° SSE 20:29:40 34° E
STARLINK-1189 2.7 20:25:47 10° WSW 20:28:55 82° SSE 20:30:07 34° E
Cosmos 1992 Rocket 3.9 20:24:04 10° NNW 20:29:20 88° ENE 20:33:07 19° SSE
STARLINK-1187 2.8 20:26:38 10° WSW 20:29:46 87° S 20:30:59 34° E
STARLINK-1198 2.7 20:26:42 10° WSW 20:29:48 83° SSE 20:30:58 35° E
STARLINK-1188 2.7 20:26:42 10° WSW 20:29:50 83° SSE 20:30:59 35° E
STARLINK-1236 3.5 20:25:50 10° WSW 20:29:52 68° SSE 20:32:12 24° E
STARLINK-1235 2.8 20:27:19 10° WSW 20:30:29 89° N 20:31:43 34° ENE
Meteor 2-15 4.5 20:24:46 10° SSW 20:30:49 82° W 20:36:56 10° N
STARLINK-1101 4.2 20:27:18 10° WNW 20:31:18 47° SSW 20:33:11 27° SSE
STARLINK-1199 2.8 20:28:37 10° WSW 20:31:46 84° SSE 20:32:53 37° E
STARLINK-1191 2.7 20:29:04 10° WSW 20:32:13 85° SSE 20:33:19 37° E
STARLINK-1210 2.7 20:29:32 10° WSW 20:32:41 85° SSE 20:33:46 38° E
STARLINK-1221 2.7 20:29:58 10° WSW 20:33:08 85° SSE 20:34:12 38° E
STARLINK-1219 2.7 20:30:26 10° WSW 20:33:35 85° SSE 20:34:38 39° E
STARLINK-1222 2.8 20:30:53 10° WSW 20:34:02 86° S 20:35:04 39° E
STARLINK-1211 2.7 20:31:21 10° WSW 20:34:29 86° SSE 20:35:29 40° E
Nadezhda 1 Rocket 4.4 20:29:48 15° SSE 20:34:45 44° E 20:40:44 10° NNE
ISS -3.2 20:31:33 10° W 20:34:46 45° SSW 20:35:39 35° SSE
STARLINK-1214 2.7 20:31:47 10° WSW 20:34:56 86° SSE 20:35:56 40° E
STARLINK-1245 2.7 20:32:16 10° WSW 20:35:23 86° SSE 20:36:20 42° E
SL-24 R/B 4.0 20:30:57 10° NNE 20:35:44 86° ESE 20:39:52 10° SSW
STARLINK-1238 2.8 20:32:39 10° WSW 20:35:48 87° SSE 20:36:47 41° E
STARLINK-1102 4.3 20:32:17 10° WNW 20:36:15 45° SSW 20:37:58 28° SSE
STARLINK-1205 2.7 20:33:34 10° WSW 20:36:42 87° S 20:37:37 43° E
STARLINK-1204 2.7 20:34:03 10° WSW 20:37:11 88° SSE 20:38:03 44° E
STARLINK-1269 3.5 20:35:42 10° WSW 20:39:46 74° SSE 20:41:43 29° E
Cosmos 2084 Rocket 4.1 20:36:46 10° NW 20:41:07 53° SW 20:43:31 25° SSE
STARLINK-1111 4.3 20:37:17 10° W 20:41:13 42° SSW 20:42:45 29° SSE
Cosmos 2058 Rocket 4.2 20:42:37 26° E 20:42:37 26° E 20:46:16 10° NNE
Cosmos 1703 3.4 20:38:44 10° N 20:42:38 56° ENE 20:43:49 39° SE
MetOp-B 4.1 20:40:10 25° SE 20:43:20 66° ENE 20:48:40 10° N
Cosmos 1603 4.0 20:38:06 10° S 20:43:22 43° ESE 20:48:40 10° NE
Cosmos 2251 Rocket 3.5 20:39:05 10° S 20:44:20 59° ESE 20:49:39 10° NNE
STARLINK-1200 3.4 20:40:31 10° WSW 20:44:35 76° SSE 20:46:21 33° E
CZ-4C R/B 4.1 20:39:28 10° WNW 20:44:45 31° N 20:50:58 10° ENE
Meteor 1-16 Rocket 4.1 20:40:19 12° S 20:45:07 57° E 20:50:30 10° NNE
SPOT 5 3.8 20:44:25 24° E 20:45:12 26° ENE 20:48:48 10° N
STARLINK-1073 4.4 20:42:17 10° W 20:46:11 40° SSW 20:47:33 30° SSE
Cosmos 2074 Rocket 4.0 20:41:05 10° N 20:47:22 86° W 20:53:00 13° S
CZ-2C R/B 2.4 20:43:38 10° NNE 20:48:51 73° ESE 20:54:01 10° S
STARLINK-1192 3.4 20:45:16 10° WSW 20:49:21 79° SSE 20:50:56 36° E
IGS 5A 4.0 20:49:01 37° E 20:49:51 42° ENE 20:53:49 10° N
ERS-1 Rocket 3.7 20:48:37 30° E 20:50:08 37° ENE 20:54:44 10° N
Landsat 7 4.1 20:49:40 35° ESE 20:51:13 49° ENE 20:55:50 10° N
Cosmos 2237 Rocket 4.0 20:46:27 10° WSW 20:51:28 32° NW 20:56:32 10° NNE
Cosmos 292 Rocket 4.4 20:49:16 10° NNW 20:53:56 54° WSW 20:57:04 20° S
STARLINK-1244 3.4 20:50:11 10° WSW 20:54:16 82° SSE 20:55:40 40° E
STARLINK-1234 2.7 20:52:45 10° W 20:55:43 77° N 20:55:44 77° N
STARLINK-1138 3.4 20:54:43 10° WSW 20:58:50 84° SSE 21:00:03 44° E
Cosmos 1656 Rocket 3.6 20:53:58 10° NNW 20:59:41 77° ENE 21:02:03 36° SE
MOS 1 Rocket 3.6 20:55:48 10° NNE 21:01:00 87° WNW 21:06:25 10° SSW
Cosmos 1610 Rocket 4.4 20:55:26 10° N 21:01:43 83° ENE 21:05:25 26° SSE
Meteor 1-11 4.2 20:56:02 10° N 21:01:52 72° ENE 21:04:28 34° SSE
Cosmos 1437 3.2 21:00:14 10° NNW 21:03:13 52° W 21:03:36 47° SW
STARLINK-1143 3.4 20:59:37 10° WSW 21:03:43 86° S 21:04:46 50° E
CARTOSAT-1 4.1 21:07:29 39° ENE 21:07:46 39° ENE 21:11:50 10° N
Cosmos 1726 Rocket 3.4 21:10:43 51° SSE 21:11:40 69° E 21:16:05 10° NNE
STARLINK-1241 3.4 21:07:50 10° WSW 21:11:55 90° ESE 21:12:34 62° ENE
Cosmos 1825 Rocket 4.1 21:08:28 10° NNW 21:12:49 55° W 21:15:02 27° SSW
COSMOS 2455 3.4 21:07:07 10° NNW 21:12:57 47° NE 21:15:09 33° E
STARLINK-1239 3.4 21:12:50 10° WSW 21:16:54 88° N 21:17:22 69° ENE
Aureole 2 Rocket 4.2 21:14:04 10° NW 21:17:04 26° WSW 21:18:09 22° SW
Cosmos 1726 2.8 21:17:22 24° SW 21:19:22 54° WNW 21:23:04 10° N
Cosmos 1461 3.6 21:15:57 10° NW 21:20:14 45° NE 21:20:56 42° ENE
Cosmos 2341 Rocket 4.0 21:14:11 10° N 21:20:32 67° ENE 21:22:43 42° SE
SAR-Lupe-2 3.6 21:17:59 10° NNE 21:21:35 76° WNW 21:21:48 72° WSW
STARLINK-1240 3.4 21:17:33 10° W 21:21:38 87° NNW 21:21:54 77° ENE
Cosmos 2369 Rocket 3.1 21:16:36 10° NW 21:21:57 42° WSW 21:25:03 23° SSW
Cosmos 1908 3.1 21:24:02 85° NNE 21:24:02 85° NNE 21:27:51 10° N
STARLINK-1209 4.4 21:22:25 10° W 21:24:11 32° WNW 21:24:11 32° WNW
STARLINK-1216 3.4 21:22:18 10° W 21:26:23 85° N 21:26:28 84° NNE
NOSS 3-4 (A) 3.7 21:20:26 10° NW 21:27:19 86° NE 21:30:09 42° SE
NOSS 3-4 (C) 3.7 21:20:32 10° NW 21:27:24 86° NE 21:30:14 42° SE
Cosmos 1953 Rocket 4.1 21:24:47 10° NNW 21:29:09 55° W 21:30:33 38° SSW
ATLAS CENTAUR R/B 3.9 21:26:59 10° NNW 21:29:25 15° N 21:31:47 10° NE
STARLINK-1237 3.5 21:27:06 10° W 21:31:04 82° NW 21:31:04 82° NW
Terra 2.1 21:32:46 50° ENE 21:32:53 50° ENE 21:37:29 10° N
STARLINK-1202 3.6 21:31:51 10° W 21:35:38 75° WNW 21:35:38 75° WNW
ERBS 3.7 21:34:33 10° WNW 21:37:35 35° N 21:37:35 35° N
Spot 2 Rocket 4.0 21:35:52 34° SSW 21:37:50 55° W 21:42:53 10° NNW
Cosmos 1606 Rocket 4.2 21:36:10 28° SW 21:38:15 56° WNW 21:42:40 10° N
NOSS 3-3 (A) 3.8 21:32:47 10° SW 21:38:45 79° SE 21:45:35 10° NE
NOSS 3-3 (C) 3.8 21:32:54 10° SW 21:38:51 78° SE 21:45:41 10° NE
SPOT 1/Viking Rocket 3.6 21:41:27 52° S 21:42:41 74° WSW 21:47:56 10° NNW
Cosmos 1943 Rocket 4.0 21:38:25 10° NW 21:42:44 24° WSW 21:46:08 14° SSW
STARLINK-1246 3.8 21:39:12 10° W 21:42:47 65° WNW 21:42:47 65° WNW
Cosmos 2218 Rocket 3.9 21:41:28 10° N 21:47:37 66° ENE 21:48:36 57° ESE
Cosmos 1943 3.1 21:42:19 10° SSW 21:47:54 87° WNW 21:53:39 10° NNE
Cosmos 1340 Rocket 3.5 21:51:02 50° N 21:51:02 50° N 21:54:08 10° NNE
STARLINK-1224 4.2 21:46:13 10° W 21:49:26 54° W 21:49:26 54° W
STARLINK-1203 4.3 21:47:16 10° W 21:50:15 49° W 21:50:15 49° W
Cosmos 1140 Rocket 4.4 21:56:03 35° NE 21:56:03 35° NE 21:59:17 10° NNE
STARLINK-1225 4.3 21:50:45 10° W 21:53:48 49° W 21:53:48 49° W
APEX 4.5 21:48:05 10° NW 21:55:06 76° WSW 21:56:22 58° S
Resurs 01 Rocket 4.0 21:54:01 12° SW 21:56:42 19° W 21:59:52 10° NW
Cosmos 921 Rocket 3.3 21:54:38 10° NNW 21:58:09 60° NW 21:58:09 60° NW
USA 234 3.2 21:53:12 10° ENE 21:59:46 82° NNW 22:06:20 10° WSW
ATLAS 2AS CENTAUR R/B 2.9 21:52:22 10° NW 21:59:59 67° SW 22:01:48 51° S
Cosmos 2181 Rocket 3.9 22:00:17 65° SE 22:01:00 71° E 22:07:12 10° NNE
Cosmos 2228 4.4 21:59:25 25° WSW 22:01:15 36° WNW 22:05:16 10° N
Cosmos 2058 3.9 21:58:43 10° N 22:01:32 40° NNE 22:01:32 40° NNE
Cosmos 407 Rocket 3.6 22:06:47 62° NE 22:06:47 62° NE 22:11:07 10° NNE
SL-16 R/B 4.3 22:01:36 10° W 22:06:19 26° NW 22:11:02 10° NNE
Cosmos 1697 Rocket 4.0 22:04:15 10° NNW 22:09:06 28° NE 22:10:12 26° ENE
Iridium 4 Rocket 3.6 22:05:07 10° N 22:08:42 56° N 22:08:42 56° N
Mayak 0.8 22:14:09 10° NNE 22:15:32 19° NE 22:15:32 19° NE
Cosmos 2058 Rocket 4.1 22:19:51 41° W 22:20:18 42° WNW 22:24:38 10° N
SL-8 Rocket 4.1 22:14:17 10° NNW 22:20:33 68° W 22:21:40 57° SW
SPOT 5 3.5 22:23:39 44° WNW 22:23:39 44° WNW 22:27:20 10° NNW
Cosmos 614 Rocket 4.2 22:24:35 65° W 22:24:55 67° WNW 22:30:09 10° NNE
Cosmos 864 Rocket 4.4 22:20:39 10° NNW 22:26:56 77° W 22:27:30 71° SW
Cosmos 2366 rocket 3.9 22:22:18 10° NNW 22:28:26 73° W 22:28:59 68° SW
ERS-1 Rocket 3.9 22:28:37 38° WSW 22:28:55 39° W 22:33:38 10° NNW
USA 32 4.3 22:25:43 10° N 22:30:10 62° NNE 22:30:10 62° NNE
Cosmos 1980 Rocket 3.7 22:29:49 10° NNW 22:34:28 26° NE 22:35:28 24° NE
CZ-4C R/B 3.7 22:28:52 10° NW 22:34:58 40° NNE 22:38:44 25° ENE
Meteor 2-1 Rocket 4.4 22:36:31 65° NE 22:36:31 65° NE 22:41:42 10° NNE
RESURS DK-1 4.3 22:39:53 10° NNW 22:42:18 26° N 22:42:18 26° N
COSMOS 2455 3.5 22:53:12 10° NW 22:58:18 47° W 22:58:18 47° W
ASTEX 1 4.2 23:02:26 49° NNW 23:02:26 49° NNW 23:06:07 10° N
Cosmos 1763 Rocket 4.3 23:03:38 10° NNW 23:07:30 49° NW 23:07:30 49° NW
ATLAS CENTAUR R/B 3.7 23:06:05 10° NNW 23:08:02 21° N 23:08:02 21° N
Terra 3.6 23:11:38 25° WNW 23:11:38 25° WNW 23:14:53 10° NW
Cosmos 1656 4.1 23:05:33 10° NNW 23:10:13 61° NNW 23:10:13 61° NNW
Cosmos 1821 Rocket 4.1 23:06:13 10° NNW 23:12:07 76° NW 23:12:07 76° NW
Meteor 2-3 Rocket 4.2 23:09:25 10° N 23:14:10 55° NNE 23:14:10 55° NNE
ATLAS 5 CENTAUR R/B 4.1 23:20:05 16° NE 23:20:05 16° NE 23:21:05 10° NE
Cosmos 1818 4.4 23:19:42 45° NW 23:20:13 47° NW 23:25:30 10° NE
Cosmos 2369 4.3 23:18:38 10° NNW 23:23:10 54° N 23:23:10 54° N
Cosmos 1605 Rocket 4.4 23:24:53 10° N 23:30:02 56° NE 23:30:02 56° NE
Cosmos 1934 Rocket 4.2 23:25:47 10° N 23:31:19 70° N 23:31:19 70° N
Thor Agena Rocket 4.5 23:27:58 10° N 23:31:38 44° NNW 23:31:38 44° NNW
USA 234 3.7 23:36:10 10° ENE 23:42:34 60° N 23:48:58 10° W
Mayak 1.1 23:50:06 10° N 23:52:06 21° NNW 23:52:06 21° NNW
Cosmos 1697 Rocket 3.5 23:48:00 10° NNW 23:51:56 46° NW 23:51:56 46° NW
SL-16 R/B 4.4 23:52:44 18° ENE 23:54:56 21° NE 23:59:24 10° N
